Regional Weather Roundup
Issued by NWS Sterling, VA

Home | Current Version | Previous Version | Graphics & Text | Print | Product List | Glossary On
Versions: 1 2 3 4 5 6 7 8 9 10 11 12 13 14 15 16 17 18 19 20 21 22 23 24 25 26 27 28 29 30 31 32 33 34 35 36 37 38 39 40 41 42 43 44 45 46 47 48 49 50
000
ASUS41 KLWX 221111
RWRLWX

REGIONAL WEATHER ROUNDUP
NATIONAL WEATHER SERVICE BALTIMORE MD/WASHINGTON DC
600 AM EST WED NOV 22 2017

Note: "FAIR" indicates few or no clouds below 12,000 feet
with no significant weather and/or obstructions to visibility.
 TC=TEMPERATURE CELSIUS

 * =Non NWS site. Station does not report precipitation (e.g. rain,
    snow, etc.), thunder, or fog.

DCZ001-MDZ009-015-VAZ040>042-051-053>054-221200-
WASHINGTON METRO

CITY           SKY/WX    TMP DP  RH WIND       PRES   REMARKS
WASHINGTON NAT CLOUDY    52  49  89 SW3       29.93F
DULLES         CLOUDY    46  43  89 CALM      29.94R
ANDREWS AFB    CLOUDY    51  49  92 SW5       29.92R
FT BELVOIR     CLOUDY    49  47  93 CALM      29.93R
QUANTICO       CLOUDY    51  51 100 N6        29.93F
COLLEGE PARK*  CLOUDY    51  47  88 CALM      29.91F
LEESBURG*      CLOUDY    48  43  81 SW3       29.95R
MANASSAS*      CLOUDY    47  44  90 CALM      29.95R
GAITHERSBURG*  MOCLDY    49  43  80 W3        29.94R

$$

MDZ006>007-011-014-221200-
BALTIMORE METRO

CITY           SKY/WX    TMP DP  RH WIND       PRES   REMARKS
BWI AIRPORT    CLOUDY    50  49  96 SW3       29.92R
MD SCIENCE CTR   N/A     53  49  86 MISG      29.91
MARTIN STATE   RAIN     N/A N/A N/A CALM      29.92S
ANNAPOLIS      CLOUDY    54  53  97 CALM      29.92R
FORT MEADE*    CLOUDY    46  45  93 S3        29.94S

$$

MDZ012-015-019>023-221200-
MARYLAND EASTERN SHORE

CITY           SKY/WX    TMP DP  RH WIND       PRES   REMARKS
OCEAN CITY     LGT RAIN  59  58  96 W3        29.92F
SALISBURY      CLOUDY    56  56 100 SE6       29.90F
CAMBRIDGE*     CLOUDY    54  52  94 CALM      29.92F FOG
EASTON*        RAIN      55  48  76 SW5       29.95F

$$

MDZ017>025-221200-
SOUTHERN MARYLAND

CITY           SKY/WX    TMP DP  RH WIND       PRES   REMARKS
PATUXENT RIVER LGT RAIN  54  53  97 S5        29.90F
ST INIGOES     LGT RAIN  53  52  96 S3        29.91F
LEONARDTOWN*   CLOUDY    52  50  93 CALM      29.92F

$$

MDZ003>005-221200-
NORTH CENTRAL MARYLAND

CITY           SKY/WX    TMP DP  RH WIND       PRES   REMARKS
FREDERICK*     CLOUDY    43  43 100 S5        29.95R
HAGERSTOWN APT CLOUDY    50  36  58 SW6       29.93R
WESTMINSTER*   PTCLDY    50  45  81 W6        29.91R

$$

MDZ501>502-221200-
WESTERN MARYLAND

CITY           SKY/WX    TMP DP  RH WIND       PRES   REMARKS
OAKLAND*       CLOUDY    36  32  87 W12G20    29.93R WCI  27
CUMBERLAND*    MOCLDY    37  34  87 CALM      30.00R

$$

VAZ025>031-221200-
SHENANDOAH VALLEY

CITY           SKY/WX    TMP DP  RH WIND       PRES   REMARKS
WINCHESTER*    CLOUDY    52  34  50 W9        29.95R
FRONT ROYAL*   CLOUDY    45  43  93 CALM      29.94R
LURAY*         CLOUDY    50  45  81 CALM      29.95R
NEW MARKET*    CLOUDY    41  39  94 SW3       29.96R
STAUNTON*      CLOUDY    40  38  95 CALM      29.97R
WAYNESBORO*    CLOUDY    49  45  83 SW7       29.95S

$$

WVZ021-048>050-054>055-221200-
EASTERN WEST VIRGINIA PANHANDLE

CITY           SKY/WX    TMP DP  RH WIND       PRES   REMARKS
MARTINSBURG    CLOUDY    53  32  44 W10       29.93R
PETERSBURG*    MOCLDY    44  34  68 CALM      29.97S

$$

VAZ036>039-050-221200-
CENTRAL FOOTHILLS

CITY           SKY/WX    TMP DP  RH WIND       PRES   REMARKS
CHARLOTTESVILL CLOUDY    47  42  83 CALM      29.93R
CULPEPER*      CLOUDY    47  41  80 CALM      29.95R
ORANGE*        CLOUDY    45  45 100 CALM      29.93R
GORDONSVILLE*  CLOUDY    43  43 100 SW3       29.93R
WARRENTON*     NOT AVBL

$$

VAZ055>057-221200-
NORTH AND CENTRAL PIEDMONT

CITY           SKY/WX    TMP DP  RH WIND       PRES   REMARKS
FREDERICKSBRG* CLOUDY    51  51 100 CALM      29.91F
STAFFORD*      CLOUDY    46  46 100 NW8       29.96F FOG

$$

NCZ024-NYZ072-PAZ021-071-VAZ022-071-221200-
OTHER REGIONAL OBSERVATIONS

CITY           SKY/WX    TMP DP  RH WIND       PRES   REMARKS
NEW YORK CITY  CLOUDY    54  48  80 CALM      29.92F
PHILADELPHIA   LGT RAIN  52  48  86 S7        29.91S
PITTSBURGH     CLOUDY    36  35  96 W9        30.05R WCI  29
ROANOKE        CLEAR     50  36  58 NW6       29.99S
RICHMOND       LGT RAIN  52  51  97 NW3       29.93S FOG
RALEIGH        LGT RAIN  51  51 100 CALM      29.96R

$$

ANZ530>537-221200-
MARINE OBSERVATIONS

STATION/POSITION TIME  TEMP    WIND        PRES
                       AIR SEA DIR/SP/G
                 (UTC) (F)     (DEG/KT/KT) (MB)
THOMAS PT LIGHT  1100   53 53  280/  7/  7   N/A
BALT KEY BRIDGE  1048   52     240/  5/  6 1013.1R
COVE POINT       1048   54     240/  9/ 12 1013.1F
LEWISETTA        1048   53 52  290/  4/  5 1013.1F
SOLOMONS ISLAND  1048   54 54  260/  4/  5 1012.3F
PINEY POINT      1048          190/  5/  6   N/A

$$




USA.gov is the U.S. government's official web portal to all federal, state and local government web resources and services.